GW4392 Weather Reports


time (UTC)temp
C
wind
direction
speed
KPH
gust
KPH
rain 1hr
cm
rain 24hr
cm
rain mn
cm
humidity
%
barometer
mb
20260503181113 22 167 1.6 3.2 0.00 0.00 0.00 61 1011.6
20260503180610 22 76 3.2 4.8 0.00 0.00 0.00 60 1011.5
20260503180108 22 172 0.0 6.4 0.00 0.00 0.00 61 1011.8
20260503175604 21 267 4.8 4.8 0.00 0.00 0.00 60 1011.7
20260503175102 21 84 1.6 4.8 0.00 0.00 0.00 63 1011.5
20260503174558 22 297 8.0 9.7 0.00 0.00 0.00 63 1011.7
20260503174055 21 173 0.0 3.2 0.00 0.00 0.00 65 1012.0
20260503173550 20 262 4.8 4.8 0.00 0.00 0.00 69 1011.9
20260503173047 20 283 3.2 4.8 0.00 0.00 0.00 68 1012.0
20260503172544 20 287 3.2 6.4 0.00 0.00 0.00 68 1011.7
20260503172041 20 256 1.6 3.2 0.00 0.00 0.00 69 1011.9
20260503171538 20 238 3.2 4.8 0.00 0.00 0.00 70 1012.1
20260503171035 20 35 1.6 3.2 0.00 0.00 0.00 72 1011.8
20260503170531 19 315 4.8 6.4 0.00 0.00 0.00 72 1011.8
20260503150924 15 166 0.0 0.0 0.00 0.00 0.00 90 1012.1
20260503150420 14 173 0.0 0.0 0.00 0.00 0.00 90 1012.2
20260503131314 11 220 0.0 0.0 0.00 0.00 0.00 97 1011.9
20260503130811 11 219 0.0 0.0 0.00 0.00 0.00 97 1011.9
20260503130309 11 219 0.0 0.0 0.00 0.00 0.00 97 1011.8
20260503110702 11 172 0.0 0.0 0.00 0.00 0.00 97 1012.1
20260503110159 11 174 0.0 0.0 0.00 0.00 0.00 97 1012.1
20260503100126 12 219 1.6 1.6 0.00 0.00 0.00 97 1012.2
20260503081515 13 128 0.0 0.0 0.00 0.00 0.00 93 1012.6
20260503081013 13 134 0.0 0.0 0.00 0.00 0.00 93 1012.7
20260503080509 13 100 0.0 0.0 0.00 0.00 0.00 92 1012.5
20260503072443 13 245 0.0 0.0 0.00 0.00 0.00 93 1012.8
20260503071939 13 246 0.0 0.0 0.00 0.00 0.00 92 1013.0
20260503071436 13 309 3.2 3.2 0.00 0.00 0.00 92 1012.8
20260503070932 13 242 0.0 0.0 0.00 0.00 0.00 93 1012.9
20260503070429 13 244 0.0 0.0 0.00 0.00 0.00 92 1012.7
20260503054843 15 174 0.0 0.0 0.00 0.05 0.05 90 1012.7
20260503054339 15 174 0.0 0.0 0.00 0.05 0.05 89 1012.7
20260503053837 15 174 0.0 1.6 0.00 0.05 0.05 89 1012.9
20260503053335 15 174 1.6 1.6 0.00 0.05 0.05 88 1013.0
20260503052831 15 157 0.0 0.0 0.00 0.05 0.05 88 1012.9
20260503052328 15 140 0.0 0.0 0.00 0.05 0.05 87 1013.3
20260503051824 15 153 0.0 0.0 0.00 0.05 0.05 86 1013.0
20260503051321 15 164 0.0 0.0 0.00 0.05 0.05 86 1013.2
20260503050818 15 164 0.0 1.6 0.00 0.05 0.05 85 1012.9
20260503050314 15 164 0.0 1.6 0.00 0.05 0.05 85 1013.0
20260503045812 15 140 0.0 0.0 0.00 0.05 0.05 84 1013.1
20260503045309 16 123 0.0 0.0 0.00 0.05 0.05 83 1013.1
20260503044805 16 51 1.6 3.2 0.00 0.05 0.05 83 1012.8
20260503044302 16 46 0.0 0.0 0.00 0.05 0.05 83 1013.1
20260503043800 16 273 1.6 1.6 0.00 0.05 0.05 82 1012.8
20260503043257 16 267 0.0 0.0 0.00 0.05 0.05 82 1013.0
20260503042752 16 268 0.0 3.2 0.00 0.05 0.05 81 1012.8
20260503042249 16 75 0.0 0.0 0.00 0.05 0.05 81 1012.9
20260503041745 16 127 0.0 0.0 0.00 0.05 0.05 81 1012.9
20260503041238 16 95 0.0 3.2 0.00 0.05 0.05 80 1012.8
20260503040735 16 122 1.6 4.8 0.00 0.05 0.05 80 1012.9
20260503040233 17 141 3.2 4.8 0.00 0.05 0.05 79 1012.8
20260503035729 17 92 1.6 3.2 0.00 0.05 0.05 78 1012.8
20260503035226 17 121 1.6 1.6 0.00 0.05 0.05 78 1012.5
20260503034724 17 104 1.6 6.4 0.00 0.05 0.05 78 1012.4
20260503034220 17 168 0.0 0.0 0.00 0.05 0.05 78 1012.1
20260503033718 17 324 1.6 3.2 0.00 0.05 0.05 77 1012.2
20260503033215 17 66 0.0 3.2 0.00 0.05 0.05 77 1012.0
20260503032713 17 4 3.2 4.8 0.00 0.05 0.05 77 1012.0
20260503032212 17 306 3.2 6.4 0.00 0.05 0.05 76 1012.0
20260503031708 17 149 0.0 1.6 0.00 0.05 0.05 75 1011.8
20260503031207 17 72 1.6 3.2 0.00 0.05 0.05 75 1011.9
20260503030702 17 78 1.6 3.2 0.00 0.05 0.05 76 1012.1
20260503030159 17 69 3.2 3.2 0.00 0.05 0.05 75 1012.0
20260503025656 17 81 0.0 3.2 0.00 0.05 0.05 75 1012.1
20260503025154 17 93 0.0 1.6 0.00 0.05 0.05 75 1011.9
20260503024650 17 159 1.6 3.2 0.00 0.05 0.05 76 1011.7
20260503024148 17 311 6.4 9.7 0.00 0.05 0.05 76 1011.9
20260503023644 17 302 0.0 3.2 0.00 0.05 0.05 78 1011.8
20260503023141 17 310 1.6 3.2 0.00 0.05 0.05 76 1011.8
20260503022637 17 275 0.0 1.6 0.00 0.05 0.05 76 1012.1
20260503022132 17 297 1.6 3.2 0.00 0.05 0.05 76 1012.1
20260503021629 18 331 3.2 3.2 0.00 0.05 0.05 73 1012.1
20260503021126 18 306 3.2 3.2 0.00 0.05 0.05 74 1012.5
20260503020623 18 158 0.0 0.0 0.00 0.05 0.05 71 1012.5
20260503020120 18 92 0.0 1.6 0.00 0.05 0.05 71 1012.6
20260503015617 18 125 8.0 9.7 0.00 0.05 0.05 72 1012.7
20260503015114 18 16 3.2 3.2 0.00 0.05 0.05 72 1012.7
20260503014609 18 101 3.2 6.4 0.00 0.05 0.05 72 1013.3
20260503014107 18 109 16.1 22.5 0.00 0.05 0.05 72 1013.4
20260503013605 18 94 11.3 16.1 0.00 0.05 0.05 69 1013.5
20260503013103 18 129 6.4 14.5 0.00 0.05 0.05 68 1013.1
20260503012600 19 107 8.0 11.3 0.00 0.05 0.05 67 1013.0
20260503012056 19 84 3.2 6.4 0.00 0.05 0.05 66 1012.8
20260503011552 19 135 3.2 6.4 0.00 0.05 0.05 66 1012.8
20260503011050 20 122 6.4 6.4 0.00 0.05 0.05 65 1012.6
20260503010546 19 111 3.2 4.8 0.00 0.05 0.05 65 1012.6
20260503010044 20 93 4.8 4.8 0.00 0.05 0.05 63 1012.4
20260503005540 20 119 4.8 4.8 0.00 0.05 0.05 64 1012.6
20260503005038 20 162 0.0 1.6 0.00 0.05 0.05 62 1012.2
20260503004534 19 149 0.0 1.6 0.00 0.05 0.05 64 1012.4
20260503004032 19 82 0.0 3.2 0.00 0.05 0.05 64 1012.5
20260503003528 18 33 1.6 3.2 0.00 0.05 0.05 66 1012.6
20260503003026 18 243 1.6 3.2 0.00 0.05 0.05 65 1012.7
20260503002523 19 204 0.0 3.2 0.00 0.05 0.05 65 1012.4
20260503002019 19 258 3.2 3.2 0.00 0.05 0.05 65 1012.3
20260503001516 18 28 1.6 3.2 0.00 0.05 0.05 67 1012.3
20260503001013 18 175 1.6 1.6 0.00 0.05 0.05 67 1012.4
20260503000511 18 352 1.6 3.2 0.00 0.05 0.05 66 1012.3
20260503000008 18 326 4.8 4.8 0.00 0.05 0.05 66 1012.3
20260502235504 19 280 6.4 11.3 0.00 0.05 0.05 66 1012.1
20260502235002 19 251 4.8 6.4 0.00 0.05 0.05 66 1011.9
20260502234458 18 176 1.6 4.8 0.00 0.05 0.05 66 1012.3
20260502233956 18 297 6.4 9.7 0.00 0.05 0.05 67 1012.3
20260502233456 20 51 1.6 1.6 0.00 0.05 0.05 63 1012.5
20260502232953 18 145 0.0 4.8 0.00 0.05 0.05 67 1012.6
20260502232449 18 125 1.6 3.2 0.00 0.05 0.05 67 1012.6
20260502231946 18 75 3.2 4.8 0.00 0.05 0.05 67 1012.5
20260502231444 18 237 1.6 1.6 0.00 0.05 0.05 69 1012.9
20260502230942 17 75 3.2 4.8 0.00 0.05 0.05 69 1012.8
20260502230439 17 11 4.8 4.8 0.00 0.05 0.05 69 1012.8
20260502225937 17 159 1.6 3.2 0.00 0.05 0.05 69 1013.1
20260502225433 17 308 4.8 4.8 0.00 0.05 0.05 71 1013.1
20260502224930 17 351 6.4 6.4 0.00 0.05 0.05 70 1013.2
20260502224426 17 306 3.2 6.4 0.00 0.05 0.05 70 1013.2
20260502223923 17 237 3.2 4.8 0.00 0.05 0.05 70 1013.5
20260502223421 17 298 3.2 4.8 0.00 0.05 0.05 70 1013.5
20260502222919 18 295 3.2 6.4 0.00 0.05 0.05 69 1013.6
20260502222416 17 88 1.6 3.2 0.00 0.05 0.05 69 1013.9
20260502221916 17 56 1.6 1.6 0.00 0.05 0.05 71 1013.7
20260502221413 17 17 6.4 6.4 0.00 0.05 0.05 69 1013.8
20260502220911 17 134 1.6 1.6 0.00 0.05 0.05 70 1013.8
20260502220406 16 269 1.6 6.4 0.00 0.05 0.05 72 1013.8
20260502215903 17 274 4.8 6.4 0.00 0.05 0.05 72 1013.8
20260502215401 16 328 6.4 12.9 0.00 0.05 0.05 72 1013.9
20260502214857 17 328 9.7 12.9 0.00 0.05 0.05 72 1014.1
20260502214354 17 351 1.6 6.4 0.00 0.05 0.05 70 1014.1
20260502213851 17 264 3.2 6.4 0.00 0.05 0.05 72 1014.3
20260502213348 17 50 3.2 6.4 0.00 0.05 0.05 70 1014.4
20260502212847 17 298 3.2 9.7 0.00 0.05 0.05 70 1014.2
20260502212345 16 321 6.4 12.9 0.00 0.05 0.05 73 1014.3
20260502211842 17 57 8.0 11.3 0.00 0.05 0.05 69 1014.4
20260502211337 17 126 4.8 4.8 0.00 0.05 0.05 70 1014.2
20260502210835 16 183 1.6 11.3 0.00 0.05 0.05 71 1014.5
20260502210332 16 322 4.8 9.7 0.00 0.05 0.05 72 1014.5
20260502205829 17 91 8.0 12.9 0.00 0.05 0.05 70 1014.5
20260502205325 17 37 3.2 6.4 0.00 0.05 0.05 70 1014.6
20260502204822 16 102 3.2 9.7 0.00 0.05 0.05 70 1014.6
20260502204320 16 32 4.8 11.3 0.00 0.05 0.05 71 1014.6
20260502203817 16 276 8.0 9.7 0.00 0.05 0.05 71 1014.6
20260502203315 16 84 3.2 6.4 0.00 0.05 0.05 71 1014.9
20260502202814 16 50 3.2 9.7 0.00 0.05 0.05 73 1015.1
20260502202312 15 329 6.4 11.3 0.00 0.05 0.05 74 1015.0
20260502201810 15 308 8.0 11.3 0.00 0.05 0.05 75 1015.1
20260502201306 15 44 1.6 9.7 0.00 0.05 0.05 75 1015.0
20260502200802 15 341 4.8 11.3 0.00 0.05 0.05 74 1015.3
20260502200258 15 215 6.4 6.4 0.00 0.05 0.05 74 1015.4
20260502195757 15 254 4.8 9.7 0.00 0.05 0.05 74 1015.4
20260502195253 15 316 6.4 11.3 0.00 0.05 0.05 74 1015.8
20260502194749 15 172 0.0 1.6 0.00 0.05 0.05 73 1015.8
20260502194247 14 253 4.8 6.4 0.00 0.05 0.05 77 1015.6
20260502193742 14 299 6.4 6.4 0.00 0.05 0.05 76 1015.8
20260502193240 14 333 1.6 3.2 0.00 0.05 0.05 77 1016.0
20260502192740 13 302 3.2 4.8 0.00 0.05 0.05 78 1015.6
20260502192238 14 50 1.6 4.8 0.00 0.05 0.05 77 1015.8
20260502191734 14 226 1.6 3.2 0.00 0.05 0.05 77 1015.5
20260502191232 13 297 6.4 9.7 0.00 0.05 0.05 78 1016.1
20260502190729 14 269 3.2 4.8 0.00 0.05 0.05 80 1015.9
20260502190227 13 189 0.0 4.8 0.00 0.05 0.05 78 1016.2
20260502185726 13 299 8.0 11.3 0.00 0.05 0.05 79 1016.0
20260502185223 13 109 0.0 3.2 0.00 0.05 0.05 78 1016.4
20260502184720 13 87 6.4 6.4 0.00 0.05 0.05 79 1016.3
20260502184215 13 117 3.2 6.4 0.00 0.05 0.05 80 1016.4
20260502183712 13 290 1.6 4.8 0.00 0.05 0.05 80 1016.6
20260502183208 13 68 3.2 3.2 0.00 0.05 0.05 80 1016.5
20260502182703 13 92 0.0 4.8 0.00 0.05 0.05 81 1016.5
20260502182159 12 172 0.0 4.8 0.00 0.05 0.05 80 1016.4
20260502181657 12 18 3.2 9.7 0.00 0.05 0.05 84 1016.5